CAPE
0 0 0 0 0 0 0 0 0 0 0 0 0 0 0 0 0 0 0 0 0 0 0 5 15 0 167 69 210 259 66 137 114 214 490 662 648 580 412 520 656 693 684 909 850
0 0 0 0 0 0 0 0 0 0 0 0 0 0 0 0 0 0 0 0 0 0 0 0 0 0 47 0 50 37 84 312 245 369 441 491 536 557 579 613 654 549 742 774 687
0 0 0 0 0 0 0 0 0 0 0 0 0 0 0 0 0 0 0 0 0 0 0 0 0 0 64 73 80 25 75 359 473 560 616 452 443 543 498 536 606 568 678 626 641
0 0 0 0 0 0 0 0 0 0 0 0 0 0 0 0 0 0 0 0 0 0 0 0 0 58 66 26 68 8 239 372 632 610 431 451 137 107 396 334 570 552 626 647 638
0 0 0 0 0 0 0 0 0 0 0 0 0 0 0 0 0 0 0 0 0 0 0 0 9 19 46 34 53 27 393 443 590 553 507 309 170 210 336 510 656 536 532 605 594
0 0 0 0 0 0 0 0 0 0 0 0 0 0 0 0 0 0 0 0 0 0 0 0 4 0 12 27 74 129 377 537 685 669 515 446 414 290 408 492 575 531 698 698 695
0 0 0 0 0 0 0 0 0 0 0 0 0 0 0 0 0 0 0 0 0 0 0 0 0 0 0 1 26 120 265 500 619 728 608 750 334 370 442 483 587 693 694 721 770
0 0 0 0 0 0 0 0 0 0 0 0 0 0 0 0 0 0 0 0 0 0 0 0 0 0 0 0 1 53 80 345 379 738 881 425 781 478 553 526 567 703 734 675 677
0 0 0 0 0 0 0 0 0 0 0 0 0 0 0 0 0 0 0 0 0 0 0 0 0 0 1 0 26 4 0 111 280 554 737 779 1024 780 615 591 487 492 598 662 683
0 0 0 0 0 0 0 0 0 0 0 0 0 0 0 0 0 0 0 0 0 0 0 0 0 0 1 38 11 9 150 9 56 93 327 748 944 1073 767 647 562 433 433 519 551
0 0 0 0 0 0 0 0 0 0 0 0 0 0 0 0 0 0 0 0 0 0 0 0 0 5 57 39 33 88 54 41 45 0 21 248 423 960 963 803 662 534 418 458 507
0 0 0 0 0 0 0 0 0 0 0 0 0 0 0 0 0 0 0 0 0 0 0 0 0 1 34 42 0 3 78 81 31 0 41 179 167 303 1098 923 844 718 427 428 508
0 0 0 0 0 0 0 0 0 0 0 0 0 0 0 0 0 0 0 0 0 0 0 0 0 0 52 9 0 17 93 146 18 12 40 227 39 10 489 1127 968 928 716 356 549
0 0 0 0 0 0 0 0 0 0 0 0 0 0 0 0 0 0 0 0 0 0 0 0 0 17 8 0 2 23 60 18 0 23 112 36 111 136 14 1125 1108 1007 939 728 497
0 0 0 0 0 0 0 0 0 0 0 0 0 0 0 0 0 0 0 0 0 0 0 0 0 0 0 0 0 38 22 0 0 0 10 132 151 186 197 750 1083 1152 1050 907 696
0 0 0 0 0 0 0 0 0 0 0 0 0 0 0 0 0 0 0 0 0 0 0 0 0 0 0 0 0 2 0 0 0 0 15 50 92 146 54 273 630 1034 1139 1026 944
0 0 0 0 0 0 0 0 0 0 0 0 0 0 0 0 0 0 0 0 0 0 0 0 0 0 0 0 0 0 0 0 4 34 81 37 28 130 276 452 490 621 1183 1150 1145
0 0 0 0 0 0 0 0 0 0 0 0 0 0 0 0 0 0 0 0 0 0 0 0 0 0 0 0 0 0 0 0 14 29 121 0 0 187 336 813 768 723 1121 1129 1265
0 0 0 0 0 0 0 0 0 0 0 0 0 0 0 0 0 0 0 0 0 0 0 0 0 0 0 0 0 0 0 0 0 9 35 42 2 16 506 913 1067 1051 1007 1269 1329
0 0 0 0 0 0 0 0 0 0 0 0 0 0 0 0 0 0 0 0 0 0 0 0 0 0 0 0 0 0 0 0 0 0 14 55 61 141 173 694 1202 1080 1240 1540 1674
0 0 0 0 0 0 0 0 0 0 0 0 0 0 0 0 0 0 0 0 0 0 0 0 0 0 0 0 0 0 0 0 0 0 6 45 131 13 34 573 1165 1345 1515 1690 1746
0 0 0 0 0 0 0 0 0 0 0 0 0 0 0 0 0 0 0 0 0 0 0 0 0 0 0 0 0 0 0 0 0 0 43 82 93 0 0 159 1139 1333 1687 1818 1696
0 0 0 0 0 1 0 0 0 0 0 0 0 0 0 0 0 0 0 0 0 0 0 0 0 0 0 0 0 0 0 0 0 0 2 46 170 332 303 651 1298 1630 1700 1742 1602
0 30 0 0 0 0 0 0 0 0 0 0 0 0 0 0 0 0 0 0 0 0 0 0 0 0 0 0 0 0 0 0 0 0 11 14 218 527 208 694 1594 1750 1837 1756 1622
0 1 0 14 2 1 0 10 11 3 0 0 0 0 0 0 0 0 0 0 0 0 0 0 0 0 0 0 0 0 0 0 0 0 0 0 3 15 331 826 1593 1752 2055 1877 1605
0 0 0 0 0 0 0 21 79 60 44 59 0 2 0 0 7 127 48 9 16 0 0 0 0 0 0 0 0 0 0 0 0 0 0 0 0 5 545 1102 1604 1849 1911 1671 1594
0 0 0 0 6 51 161 226 169 199 146 75 88 49 28 5 69 108 30 36 41 23 8 1 0 0 0 0 0 0 0 0 0 0 0 0 0 0 126 1136 1700 1966 1898 1710 1674
CIN
0 0 0 0 0 0 0 0 0 0 0 0 0 0 0 0 0 0 0 0 0 0 0 -31 -199 0 -61 -39 -26 -36 -63 -28 -16 -7 -25 -2 -2 -13 -25 -4 -2 -2 -11 -2 -4
0 0 0 0 0 0 0 0 0 0 0 0 0 0 0 0 0 0 0 0 0 0 0 0 0 0 -41 -1 -33 -9 -55 -3 -8 -13 -25 -14 -4 -4 -1 0 -1 -2 -4 -8 -13
0 0 0 0 0 0 0 0 0 0 0 0 0 0 0 0 0 0 0 0 0 0 0 0 0 0 -72 -50 -28 -62 -39 -3 -19 -23 -35 -29 -13 -5 -5 -3 -1 -11 -26 -35 -16
0 0 0 0 0 0 0 0 0 0 0 0 0 0 0 0 0 0 0 0 0 0 0 0 0 -51 -60 -8 -19 -13 -3 -3 -17 -25 -33 -44 -76 -109 -61 -68 -16 -28 -23 -15 -7
0 0 0 0 0 0 0 0 0 0 0 0 0 0 0 0 0 0 0 0 0 0 0 0 -3 -4 -4 -5 -29 -38 -2 -13 -18 -17 -27 -44 -83 -90 -114 -99 -43 -55 -37 -5 -2
0 0 0 0 0 0 0 0 0 0 0 0 0 0 0 0 0 0 0 0 0 0 0 0 -4 0 -5 -59 -16 -5 -4 -4 -12 -27 -38 -50 -62 -47 -109 -115 -106 -88 -18 -3 -2
0 0 0 0 0 0 0 0 0 0 0 0 0 0 0 0 0 0 0 0 0 0 0 0 0 0 -1 -2 -75 -4 -5 -18 -8 -17 -22 -5 -42 -86 -110 -111 -113 -80 -33 -6 -2
0 0 0 0 0 0 0 0 0 0 0 0 0 0 0 0 0 0 0 0 0 0 0 0 0 0 0 -40 -68 -41 -14 -5 -23 -13 -22 -27 -30 -96 -124 -103 -79 -82 -61 -47 -14
0 0 0 0 0 0 0 0 0 0 0 0 0 0 0 0 0 0 0 0 0 0 0 0 0 0 -2 0 -65 -42 0 -5 -6 -12 -12 -22 -8 -76 -108 -85 -81 -73 -80 -71 -37
0 0 0 0 0 0 0 0 0 0 0 0 0 0 0 0 0 0 0 0 0 0 0 0 0 0 -1 -8 -18 -105 -8 -20 -9 -7 -9 -3 -3 -56 -89 -71 -78 -82 -70 -61 -37
0 0 0 0 0 0 0 0 0 0 0 0 0 0 0 0 0 0 0 0 0 0 0 0 0 -5 -7 -4 -26 -9 -6 -3 -6 0 -34 -4 -3 -7 -67 -72 -65 -65 -61 -38 -13
0 0 0 0 0 0 0 0 0 0 0 0 0 0 0 0 0 0 0 0 0 0 0 0 0 -5 -11 -15 0 -5 -4 -4 -7 -1 -30 -3 -12 -2 -32 -65 -54 -40 -39 -17 -6
0 0 0 0 0 0 0 0 0 0 0 0 0 0 0 0 0 0 0 0 0 0 0 0 -1 0 -6 -7 0 -7 -3 -6 -14 -37 -10 -7 -51 -68 -22 -48 -45 -38 -26 -25 -6
0 0 0 0 0 0 0 0 0 0 0 0 0 0 0 0 0 0 0 0 0 0 0 0 0 -8 -5 0 -1 -7 -24 -25 0 -11 -16 -76 -12 -107 -49 -14 -55 -38 -19 -8 -15
0 0 0 0 0 0 0 0 0 0 0 0 0 0 0 0 0 0 0 0 0 0 0 0 0 0 0 0 0 -8 -28 0 0 -3 -16 -8 -11 -8 -46 -3 -14 -39 -14 -2 -12
0 0 0 0 0 0 0 0 0 0 0 0 0 0 0 0 0 0 0 0 0 0 0 0 0 0 0 0 0 -6 0 0 0 0 -29 -35 -21 -19 -131 -30 -6 -8 -23 -11 -5
0 0 0 0 0 0 0 0 0 0 0 0 0 0 0 0 0 0 0 0 0 0 0 0 0 0 0 0 0 0 0 0 -4 -9 -21 -78 -14 -6 -14 -30 -21 -14 -25 -14 -2
0 0 0 0 0 0 0 0 0 0 0 0 0 0 0 0 0 0 0 0 0 0 0 0 0 0 0 0 0 0 0 0 -7 -7 -70 0 0 -3 -34 -43 -33 -36 -16 -20 -3
0 0 0 0 0 0 0 0 0 0 0 0 0 0 0 0 0 0 0 0 0 0 0 0 0 0 0 0 0 0 0 0 0 -13 -8 -97 -16 -1 -28 -46 -35 -37 -50 -41 -29
0 0 0 0 0 0 0 0 0 0 0 0 0 0 0 0 0 0 0 0 0 0 0 0 0 0 0 0 0 0 0 0 0 0 -12 -58 -8 -7 -30 -32 -46 -41 -49 -64 -57
0 0 0 0 0 0 0 0 0 0 0 0 0 0 0 0 0 0 0 0 0 0 0 0 0 0 0 0 0 0 0 0 0 0 -6 -7 -6 -175 -26 -47 -35 -46 -71 -98 -96
0 0 0 0 0 0 0 0 0 0 0 0 0 0 0 0 0 0 0 0 0 0 0 0 0 0 0 0 0 0 0 0 0 0 -12 -10 -38 0 -2 -52 -26 -53 -101 -121 -119
0 0 0 0 0 -1 0 0 0 0 0 0 0 0 0 0 0 0 0 0 0 0 0 0 0 0 0 0 0 0 0 0 0 0 -5 -8 -7 -17 -13 -4 -33 -74 -131 -161 -150
0 -54 0 0 0 0 0 0 0 0 0 0 0 0 0 0 0 0 0 0 0 0 0 0 0 0 0 0 0 0 0 0 0 0 -7 -10 -10 -32 -17 -21 -52 -99 -153 -170 -156
0 -2 0 -2 -2 -2 0 -3 -3 -3 0 0 0 0 0 0 0 0 0 0 0 0 0 0 0 0 0 0 0 0 0 0 0 0 0 0 -9 -6 -11 -21 -63 -101 -181 -166 -179
0 0 0 0 0 0 0 -4 -4 -7 -3 -5 0 -4 0 0 -3 -2 -3 -3 -5 0 0 0 0 0 0 0 0 0 0 0 0 0 0 0 0 -11 -10 -6 -57 -107 -211 -192 -192
0 0 0 0 -4 -4 -6 -4 -4 -3 -3 -4 -5 -5 -2 -4 -8 -16 -11 -23 -6 -6 -4 -1 0 0 0 0 0 0 0 0 0 0 0 0 0 0 -6 -17 -63 -122 -190 -171 -167
Wind_Speed
18 19 20 20 20 21 20 21 20 19 18 17 18 18 19 19 20 21 21 18 18 21 16 16 16 16 17 18 15 13 30 31 28 30 30 22 26 25 27 26 22 17 28 29 29
20 21 21 22 22 22 22 22 22 21 20 19 19 19 19 19 21 24 22 20 20 22 18 16 10 15 17 21 15 23 29 30 13 31 29 27 29 26 25 24 24 27 29 29 28
22 22 23 23 24 24 24 24 24 23 22 21 20 19 19 19 22 20 22 23 22 23 19 14 13 13 19 16 21 23 27 27 27 27 29 29 29 24 22 23 23 25 28 28 27
23 24 25 25 25 26 26 26 26 25 24 22 21 21 21 21 9 13 21 24 24 24 20 15 14 14 17 22 17 24 24 24 26 26 29 29 29 30 27 24 25 26 27 28 27
25 26 26 27 27 27 28 28 27 26 25 24 22 21 19 21 17 13 23 22 26 25 21 17 12 15 18 20 21 22 22 23 23 25 26 27 30 30 28 26 28 28 27 26 26
27 27 28 29 29 29 29 29 28 28 26 25 23 22 19 21 15 19 20 26 26 26 22 19 13 14 16 16 6 20 20 21 21 21 22 24 25 24 26 27 28 28 26 25 24
28 29 30 30 31 31 31 30 29 28 27 24 22 20 22 18 19 23 25 27 28 27 24 21 18 16 17 16 18 19 19 19 19 18 15 14 25 25 24 25 26 25 24 24 22
30 30 31 31 32 32 33 31 29 26 24 22 21 21 20 18 21 25 27 30 30 28 27 21 21 18 17 17 17 16 15 14 19 17 14 11 21 21 22 23 22 23 23 23 22
31 31 32 32 32 33 33 32 28 24 22 21 20 19 21 15 18 17 23 29 4 28 28 24 23 20 15 16 15 15 9 17 16 16 15 13 18 17 19 20 20 21 21 20 20
32 32 32 33 33 33 32 30 24 22 21 21 24 22 22 17 13 20 20 27 27 6 13 18 20 14 14 15 2 22 13 14 16 16 13 12 13 16 17 17 18 19 19 19 19
31 32 33 33 33 31 27 22 21 20 22 25 18 23 16 17 19 19 16 15 29 8 13 15 11 9 17 10 20 19 18 15 15 14 9 10 9 12 15 16 15 16 18 17 17
31 31 33 33 33 29 24 21 18 22 28 29 29 29 25 20 20 16 11 9 8 12 13 13 11 17 19 14 11 6 8 6 12 9 8 8 15 10 14 17 15 15 15 16 16
32 32 32 32 30 24 21 18 21 23 25 22 22 25 23 19 23 13 10 9 9 11 13 14 5 15 17 5 6 5 7 16 20 23 12 16 13 2 17 15 15 14 13 14 13
32 32 31 31 22 22 19 19 22 20 24 17 20 20 19 21 27 22 10 11 18 11 14 13 13 7 12 9 5 17 1 12 20 26 14 8 9 11 14 15 12 12 13 13 12
32 31 30 26 24 19 20 21 22 19 25 13 12 12 15 18 15 16 15 15 15 13 18 16 12 18 8 14 6 12 15 22 29 29 26 27 25 8 8 13 10 11 12 12 12
31 31 30 16 14 20 22 22 19 21 25 17 15 17 17 21 22 12 16 22 24 26 23 33 22 19 9 14 10 8 7 22 13 19 21 18 20 11 14 13 13 10 11 13 13
31 31 26 22 15 20 22 19 23 27 17 20 18 17 19 17 22 18 18 18 18 17 16 16 19 17 22 11 21 18 5 16 16 17 5 20 25 12 11 14 14 12 11 14 15
30 29 15 16 20 20 19 16 27 21 21 19 21 21 25 21 22 19 20 22 23 21 23 16 15 11 8 11 8 9 9 21 20 21 16 17 26 10 11 14 13 13 11 13 16
25 13 11 13 14 16 14 10 21 27 21 24 24 25 21 21 23 20 26 26 23 27 25 22 21 10 11 9 11 20 14 24 30 33 21 8 5 24 9 10 12 11 10 11 12
20 13 12 15 14 13 16 21 23 20 23 25 28 23 24 21 23 25 24 28 28 23 36 37 31 13 9 19 17 34 31 5 21 29 31 29 13 16 1 7 10 11 10 9 11
13 12 15 11 8 11 16 20 22 16 22 24 24 23 26 20 23 26 30 23 26 20 28 38 27 28 14 18 15 11 25 21 34 16 26 27 8 15 11 11 12 12 9 8 8
13 15 14 10 8 11 18 22 20 23 17 25 23 27 26 22 26 27 24 24 20 27 24 31 29 29 21 26 19 38 15 22 18 21 22 36 22 5 9 15 10 10 7 6 7
13 17 13 9 12 11 19 23 23 25 22 22 25 24 21 27 25 27 23 16 17 25 27 23 30 37 29 18 18 19 26 14 28 28 17 12 13 7 9 7 7 7 6 4 6
15 14 15 9 15 18 22 22 22 19 29 24 26 27 28 29 25 24 24 20 22 23 25 26 32 29 34 27 20 17 20 31 37 26 12 10 14 6 13 7 5 5 4 5 3
17 19 15 15 10 11 18 21 21 22 19 23 26 29 30 30 28 25 27 22 19 20 22 26 33 32 34 35 27 31 19 16 17 17 28 33 26 20 7 5 1 1 2 4 5
20 19 18 6 8 10 9 10 20 23 24 25 24 25 24 28 29 22 23 21 21 17 20 22 31 29 34 30 33 29 30 25 16 22 29 40 40 34 13 5 2 3 2 5 5
23 16 13 11 8 7 11 9 16 25 26 28 24 23 23 27 28 29 26 27 25 21 22 22 25 30 31 29 30 37 29 27 30 28 20 23 30 30 25 4 5 4 3 5 5
Wind_Direction
306 305 304 301 300 297 295 293 289 283 274 263 258 253 250 249 238 182 183 198 174 169 190 166 147 143 147 133 141 147 70 78 80 79 76 101 83 87 88 98 109 137 110 113 116
306 305 303 302 300 298 296 294 289 285 279 271 261 253 250 250 216 194 203 211 191 179 164 161 174 154 143 108 114 90 57 66 10 70 80 84 75 97 98 95 100 96 92 113 121
304 303 303 301 300 298 295 293 290 286 282 274 263 255 250 243 213 213 215 207 188 175 183 197 187 168 133 140 83 37 56 53 39 33 77 83 84 97 93 91 99 101 109 118 122
304 302 301 300 299 297 295 291 289 286 283 276 267 260 254 213 301 266 223 209 186 179 187 197 191 169 141 86 125 55 64 57 58 73 66 77 80 74 77 88 105 108 114 120 126
304 302 300 299 298 296 294 290 288 285 282 279 270 269 260 249 248 259 215 220 172 175 185 194 198 172 112 94 114 65 89 84 75 61 58 71 74 80 87 101 103 109 117 122 132
304 300 299 297 296 295 294 290 286 283 279 280 275 272 268 260 276 236 232 208 183 181 190 193 223 221 177 158 347 92 109 90 87 77 68 73 83 88 93 98 100 114 122 122 127
305 301 298 296 295 293 291 290 285 281 279 282 284 288 267 275 265 238 220 207 198 188 199 202 220 201 174 94 145 113 86 101 95 97 107 89 87 79 101 100 105 111 122 127 126
306 303 299 296 294 292 290 287 285 283 284 284 290 286 280 281 265 245 220 216 211 209 212 233 217 214 190 185 127 138 148 90 68 95 109 144 58 91 105 105 107 114 120 133 132
307 304 301 297 294 291 287 285 283 286 287 287 286 285 279 291 270 267 249 223 185 189 211 239 206 194 138 146 142 133 90 37 57 96 88 128 58 108 115 112 112 118 121 124 130
307 305 303 299 295 291 285 282 289 288 285 282 277 278 277 276 276 266 260 240 236 252 158 169 175 165 153 170 97 241 30 28 19 54 79 87 87 105 127 122 118 120 115 122 125
305 305 303 301 297 291 294 293 290 286 273 266 286 273 287 281 277 269 265 263 240 250 170 162 165 166 176 151 294 298 316 354 13 32 109 93 104 108 131 138 127 124 122 119 123
304 301 303 301 297 289 289 295 298 292 277 269 265 266 272 280 271 267 261 248 217 187 179 182 188 179 195 320 322 25 18 50 6 61 104 112 5 97 131 152 140 131 124 124 122
304 302 299 298 294 294 295 300 298 295 280 276 268 265 267 266 264 260 239 215 235 208 194 197 214 222 293 321 144 138 149 328 313 273 201 316 360 63 207 143 144 136 131 128 126
302 301 300 296 303 303 292 299 298 299 280 271 270 269 264 264 263 265 231 234 262 235 206 217 251 260 192 183 171 193 16 326 309 254 349 142 3 34 195 154 132 134 134 135 130
299 298 296 301 298 303 300 297 296 289 273 272 274 284 270 252 279 242 258 242 248 260 266 207 246 199 245 185 195 189 328 304 278 260 250 271 292 69 113 128 111 124 140 139 130
294 295 294 324 324 303 298 291 287 267 268 277 282 269 262 254 264 256 247 254 259 263 266 257 272 199 219 200 201 288 253 305 229 217 226 306 262 70 18 73 53 105 133 141 130
289 287 296 298 315 303 293 283 263 257 278 273 274 270 261 261 253 253 244 236 242 244 247 260 268 276 273 212 199 196 251 201 200 200 257 309 255 6 40 24 24 41 104 134 134
286 281 322 303 296 293 288 287 258 266 266 276 274 273 262 262 253 255 249 244 244 249 260 255 252 246 229 224 246 208 205 200 205 210 314 336 276 328 4 18 33 50 78 115 127
281 358 347 326 308 292 292 292 272 269 274 268 272 265 262 262 263 254 251 252 247 247 255 262 268 264 238 259 210 197 199 208 220 233 294 319 37 240 56 29 26 51 68 87 106
350 9 353 321 306 297 284 274 284 284 279 268 261 263 262 258 256 252 253 256 253 248 248 254 272 256 251 272 267 219 258 282 205 220 235 232 319 314 1 29 45 53 79 71 91
54 28 351 0 344 299 284 278 282 298 277 270 265 266 263 267 259 258 254 264 254 256 255 248 267 264 258 260 262 244 206 249 234 200 216 226 270 349 344 202 81 76 66 73 83
71 11 20 30 345 308 287 280 292 280 289 269 271 266 263 271 263 261 260 257 263 256 257 253 262 261 266 269 270 254 209 202 205 203 207 248 308 281 162 152 70 72 51 55 82
66 32 57 44 342 320 295 286 283 277 275 277 266 267 273 262 267 262 263 277 276 265 260 256 256 257 266 266 266 270 270 205 207 210 208 217 285 351 353 2 42 37 55 34 83
61 60 54 76 325 318 307 294 283 283 268 275 269 267 265 262 265 267 266 274 274 266 269 262 257 260 259 267 270 264 267 264 257 275 260 240 267 345 315 316 343 12 46 84 87
44 27 42 44 29 2 326 308 292 282 278 274 268 263 260 260 261 262 265 274 276 273 271 259 260 261 264 265 273 269 264 262 223 262 275 267 284 296 291 276 289 81 61 119 117
13 17 22 73 65 34 22 347 293 276 274 270 266 269 261 259 259 277 269 265 273 276 267 263 262 268 264 268 265 273 269 274 259 268 274 263 262 261 336 343 121 142 118 149 135
5 29 37 46 87 82 24 10 311 281 276 264 273 268 269 266 269 271 276 271 277 274 273 270 267 265 267 270 270 265 268 273 273 275 273 277 277 278 276 286 256 199 202 175 152